[[{"header":{"parameterUnit":"m.s-1","parameterCategory":1,"la1":30.2991,"la2":30.254,"lo1":-89.0895,"lo2":-89.0444,"dy":0.0017,"dx":0.0017,"nx":28,"ny":28,"refTime":"2025-08-20T03:00:00:Z","depth":0,"parameterNumber":2,"parameterNumberName":"U-component_of_WINDS"},"data":[0,0,0,0,0,0,0,0,0,0,0,0,0,0,0,0,0,0,0,0,0,0,0,0,0,0,0,0,0,0,0,0,0,0,0,0,0,0,0,0,0,0,0,0,0,0,0,0,0,0,0,0,0,0,0,0,0,0,1.9552,1.9554,0,1.9734,1.9737,1.9739,1.9787,1.9786,1.9784,1.9783,1.9974,1.998,1.9986,0,0,0,0,0,0,0,0,0,0,0,0,0,1.9248,1.9253,1.9552,1.9554,1.9556,1.9734,1.9737,1.9739,1.9787,1.9786,1.9784,1.9783,1.9972,1.9979,1.9986,0,0,0,0,0,0,0,0,0,0,0,0,0,1.94,1.9255,1.9551,1.9602,1.9608,1.9734,1.9737,1.974,1.9787,1.9785,1.9784,1.9782,1.9969,1.9978,1.9987,2.0077,0,0,2.0015,2.0019,0,0,0,0,0,0,0,0,1.9391,1.9411,1.9592,1.9598,1.9606,1.9736,1.9699,1.9853,1.9788,1.9719,1.9783,1.9781,1.9896,1.9911,1.9949,2.0086,2.0094,2.0016,2.0022,2.0025,2.0028,0,0,0,0,0,0,0,1.9381,1.9404,1.9624,1.9595,1.9603,1.9616,1.9636,1.9729,1.9815,1.9725,1.9729,1.975,1.99,1.994,1.9954,2.0097,2.0016,2.0024,2.0029,2.0033,2.0316,2.0318,0,0,0,0,0,0,1.9361,1.9394,1.9618,1.963,1.9492,1.9623,1.9645,1.9696,1.9814,1.983,1.9751,1.9751,1.9925,1.9943,1.9961,2.0073,2.0025,2.0034,2.0039,2.0314,2.0317,2.0319,0,0,0,0,0,0,1.9354,1.9381,1.9611,1.9513,1.9544,1.963,1.9687,1.97,1.9741,1.9834,1.985,1.9776,1.9925,1.9948,2.0048,2.0081,2.0038,2.0046,2.0312,2.0315,2.0318,2.0299,0,0,0,0,0,0,1.9345,1.9378,1.9412,1.9514,1.9549,1.9694,1.9689,1.9705,1.9756,1.9758,1.9862,1.9877,1.9925,2.0034,2.0057,2.0093,2.0054,2.0309,2.0313,2.0317,2.0297,2.0301,2.0305,0,0,0,0,0,1.9334,1.9401,1.9414,1.944,1.9593,1.9695,1.9716,1.9769,1.9759,1.9794,1.9854,1.9874,2.0073,2.0043,2.007,2.0109,2.0308,2.0312,2.0317,2.0296,2.03,2.0305,0,0,0,0,0,0,1.9302,1.9415,1.9431,1.9531,1.9603,1.9703,1.975,1.9772,1.9849,1.9848,1.9912,1.9935,2.003,2.008,2.0044,2.0202,2.0191,2.0201,2.0166,2.0171,2.0175,2.0161,2.0061,0,0,0,0,0,1.9306,1.9379,1.9474,1.9554,1.9589,1.9663,1.971,1.9744,1.9822,1.9853,1.9919,1.9995,2.0075,2.0126,2.0204,2.0305,2.0328,2.0345,2.0348,2.0351,2.0359,2.0415,2.0424,2.0334,2.0334,2.0334,0,0,1.9317,1.9387,1.943,1.9549,1.9609,1.9683,1.9688,1.9767,1.9823,1.9865,1.9962,2.0014,2.0103,2.0203,2.025,2.0247,2.0389,2.0357,2.0358,2.0365,2.0421,2.0429,2.0437,2.0337,2.0337,2.0336,0,0,1.9373,1.9434,1.9507,1.9566,1.9656,1.9705,1.9722,1.9819,1.9854,1.9953,1.9986,2.0054,2.019,2.0251,2.03,2.0379,2.0401,2.0404,2.0423,2.0477,2.0484,2.0491,2.0519,2.0528,2.0411,2.0411,2.0411,0,1.9375,1.9487,1.9542,1.9619,1.967,1.971,1.9785,1.984,1.9952,1.9987,1.9981,2.0152,2.0215,2.033,2.0349,2.0387,2.0409,2.0392,2.0479,2.0486,2.0493,2.052,2.053,2.0411,2.0411,2.0411,2.0411,0,1.9485,1.9562,1.9611,1.9715,1.9773,1.9848,1.9914,1.9966,1.9995,2.0045,2.0145,2.0221,2.0315,2.0345,2.0376,2.0464,2.046,2.0466,2.0456,2.05,2.0527,2.0537,2.041,2.041,2.041,2.0411,0,0,1.9526,1.9659,1.9676,1.9724,1.9826,1.9888,1.9965,2.0056,2.0099,2.0174,2.0241,2.0355,2.0361,2.0416,2.0454,2.0502,2.0559,2.0502,2.0505,2.0509,2.0661,2.0655,2.0666,2.0573,2.0576,2.0578,2.0653,0,1.9595,1.9733,1.9784,1.9898,1.997,2.0009,2.0076,2.0146,2.0195,2.0264,2.0318,2.0397,2.0399,2.0433,2.0482,2.0541,2.059,2.0537,2.0637,2.0639,2.0612,2.068,2.0675,2.0743,2.0664,2.0666,2.0667,0,1.9694,1.9769,1.9889,1.9981,2.0014,2.0073,2.016,2.0226,2.0306,2.0338,2.04,2.0434,2.0517,2.0502,2.0617,2.058,2.0624,2.0659,2.0663,2.0674,2.0655,2.0693,2.0766,2.0775,2.0684,2.0683,2.0682,0,1.9711,1.9842,1.9931,1.9971,2.0081,2.0122,2.017,2.0249,2.03,2.0377,2.0411,2.0496,2.0543,2.0609,2.0666,2.065,2.0776,2.0766,2.0805,2.0804,2.083,2.0828,2.091,2.0859,2.0859,2.0859,2.0858,0,1.9782,1.9854,1.994,1.9995,2.0077,2.0135,2.0215,2.0265,2.0335,2.0401,2.044,2.0501,2.0573,2.0643,2.0688,2.0777,2.0798,2.0827,2.0838,2.0823,2.0819,2.0852,2.0849,2.0861,2.0861,2.086,2.086,0,1.9815,1.9876,1.9975,2.0071,2.0096,2.0153,2.0235,2.029,2.0339,2.0422,2.0445,2.0523,2.0608,2.0671,2.0782,2.0812,2.0906,2.0918,2.0879,2.0884,2.092,2.0915,2.1026,2.1044,2.0981,2.0981,2.0982,0,1.9857,1.9913,2.0014,2.006,2.0107,2.0181,2.0233,2.0293,2.0346,2.0441,2.0485,2.0572,2.0645,2.0779,2.0846,2.0931,2.0945,2.0978,2.0958,2.0941,2.0945,2.094,2.0946,2.098,2.0981,2.0981,2.0981,0,1.9923,1.995,2.0023,2.0106,2.0167,2.0236,2.0305,2.0341,2.0413,2.047,2.0557,2.0613,2.0725,2.0811,2.0902,2.0953,2.098,2.0987,2.1001,2.0986,2.096,2.0974,2.0886,2.0984,2.0984,2.0984,2.0984,2.0984,1.9962,2.0013,2.0092,2.0172,2.023,2.0294,2.0349,2.0405,2.0478,2.0573,2.0604,2.0693,2.0773,2.0897,2.0949,2.102,2.102,2.104,2.1045,2.1049,2.1047,2.0949,2.1037,2.1037,2.1037,2.1037,2.1037,0,2.003,2.0082,2.0155,2.025,2.0313,2.0331,2.0409,2.046,2.0538,2.0609,2.0679,2.0778,2.0862,2.0936,2.1023,2.1066,2.108,2.1087,2.1084,2.1095,2.1043,2.1022,2.1074,2.1074,2.1074,2.1074,2.1074,2.1074,2.0073,2.016,2.0197,2.0313,2.0366,2.0452,2.0495,2.0554,2.0611,2.072,2.0789,2.0836,2.0908,2.1001,2.1078,2.1098,2.1128,2.1132,2.1154,2.1104,2.1099,2.1095,2.1076,2.1138,2.1138,2.1201,2.1202,2.1202]},{"header":{"parameterUnit":"m.s-1","parameterCategory":1,"la1":30.2991,"la2":30.254,"lo1":-89.0895,"lo2":-89.0444,"dy":0.0017,"dx":0.0017,"nx":28,"ny":28,"refTime":"2025-08-20T03:00:00:Z","depth":0,"parameterNumber":3,"parameterNumberName":"V-component_of_WINDS"},"data":[0,0,0,0,0,0,0,0,0,0,0,0,0,0,0,0,0,0,0,0,0,0,0,0,0,0,0,0,0,0,0,0,0,0,0,0,0,0,0,0,0,0,0,0,0,0,0,0,0,0,0,0,0,0,0,0,0,0,3.2291,3.2291,0,3.2228,3.2228,3.2227,3.218,3.218,3.218,3.2179,3.2114,3.2113,3.2112,0,0,0,0,0,0,0,0,0,0,0,0,0,3.2369,3.2367,3.2292,3.2291,3.229,3.2228,3.2228,3.2227,3.2181,3.218,3.218,3.2179,3.2115,3.2113,3.2112,0,0,0,0,0,0,0,0,0,0,0,0,0,3.2323,3.2367,3.2292,3.2259,3.2256,3.2229,3.2228,3.2227,3.2181,3.218,3.2179,3.2179,3.2115,3.2113,3.2111,3.2111,0,0,3.2105,3.2104,0,0,0,0,0,0,0,0,3.2326,3.2321,3.2265,3.2262,3.2258,3.2212,3.2231,3.2188,3.2181,3.2209,3.2179,3.2179,3.2147,3.2143,3.2132,3.2108,3.2105,3.2105,3.2104,3.2103,3.2102,0,0,0,0,0,0,0,3.2329,3.2323,3.2266,3.2264,3.226,3.2247,3.224,3.2223,3.2182,3.2207,3.2203,3.2196,3.2145,3.2134,3.213,3.2104,3.2105,3.2103,3.2102,3.2101,3.2071,3.2072,0,0,0,0,0,0,3.2338,3.2326,3.2268,3.2265,3.2291,3.2246,3.2238,3.2227,3.2182,3.2175,3.2197,3.2194,3.2138,3.2133,3.2128,3.2121,3.2103,3.2101,3.21,3.2071,3.2071,3.2072,0,0,0,0,0,0,3.2339,3.2333,3.2271,3.2294,3.2285,3.2245,3.2233,3.2226,3.2215,3.2175,3.2167,3.2193,3.2137,3.2131,3.2114,3.2118,3.21,3.2098,3.207,3.2071,3.2071,3.2109,0,0,0,0,0,0,3.2342,3.2334,3.2334,3.2295,3.2284,3.226,3.2234,3.2225,3.2212,3.2208,3.217,3.2163,3.2136,3.2118,3.2112,3.2115,3.2097,3.207,3.2071,3.2071,3.2108,3.2111,3.2114,0,0,0,0,0,3.2345,3.2349,3.2335,3.2328,3.2284,3.226,3.2254,3.2224,3.2212,3.2211,3.2185,3.2164,3.2119,3.2116,3.211,3.2112,3.2069,3.207,3.2071,3.2106,3.211,3.2114,0,0,0,0,0,0,3.2391,3.2343,3.2327,3.2318,3.2294,3.2253,3.2251,3.223,3.2209,3.2206,3.2169,3.216,3.2147,3.2128,3.2126,3.2107,3.2091,3.2091,3.212,3.2124,3.2127,3.2131,3.2095,0,0,0,0,0,3.24,3.2385,3.2344,3.234,3.2328,3.2292,3.228,3.2258,3.2231,3.2221,3.2194,3.2168,3.2147,3.2134,3.2114,3.2104,3.2094,3.2102,3.2106,3.2109,3.2109,3.2098,3.2101,3.2075,3.2075,3.2075,0,0,3.2419,3.2391,3.2384,3.2348,3.2327,3.231,3.2283,3.2269,3.2256,3.2219,3.2201,3.2179,3.2148,3.2134,3.2127,3.2118,3.2113,3.211,3.2113,3.2111,3.2099,3.2102,3.2104,3.2075,3.2075,3.2075,0,0,3.2444,3.2423,3.2415,3.2393,3.236,3.2335,3.2333,3.2294,3.2278,3.226,3.223,3.2214,3.218,3.2158,3.2142,3.2154,3.2132,3.2148,3.2165,3.2156,3.2158,3.2159,3.2161,3.2162,3.2148,3.2148,3.2148,0,3.2471,3.2447,3.2414,3.2399,3.2383,3.2348,3.2338,3.2318,3.2281,3.2269,3.226,3.2214,3.2191,3.2169,3.2171,3.2161,3.2155,3.2152,3.216,3.2162,3.2163,3.2164,3.2165,3.215,3.215,3.215,3.215,0,3.248,3.2463,3.2461,3.2423,3.2407,3.2396,3.2359,3.2346,3.2325,3.23,3.2279,3.2249,3.222,3.2213,3.2194,3.2188,3.2183,3.2168,3.2151,3.2167,3.2168,3.2168,3.2153,3.2152,3.2152,3.2151,0,0,3.2534,3.2476,3.2476,3.2456,3.2416,3.2401,3.2387,3.2357,3.2345,3.232,3.2304,3.2275,3.2259,3.2241,3.2217,3.2209,3.2217,3.2194,3.2193,3.2197,3.2205,3.2216,3.2217,3.2202,3.2202,3.2202,3.2207,0,3.2551,3.2523,3.2491,3.2473,3.2455,3.2419,3.2406,3.2379,3.2354,3.2334,3.2308,3.2286,3.2268,3.2256,3.2247,3.2218,3.2217,3.2217,3.2186,3.2185,3.2194,3.2217,3.2229,3.2235,3.2207,3.2207,3.2207,0,3.2567,3.2541,3.2522,3.2479,3.247,3.2459,3.2427,3.2409,3.2376,3.2359,3.2337,3.2311,3.2291,3.2277,3.2248,3.2249,3.2233,3.2217,3.2216,3.2211,3.2197,3.2211,3.2237,3.2237,3.2207,3.2207,3.2207,0,3.2605,3.2565,3.2547,3.2532,3.2483,3.2475,3.2454,3.2421,3.2404,3.2376,3.2364,3.2334,3.2318,3.2295,3.2261,3.2254,3.2234,3.2218,3.2217,3.2218,3.2214,3.2215,3.2236,3.2207,3.2207,3.2207,3.2207,0,3.2626,3.2614,3.2563,3.2552,3.2537,3.2499,3.2485,3.2461,3.2431,3.2413,3.238,3.2364,3.2321,3.2299,3.2272,3.225,3.2244,3.2227,3.222,3.2229,3.2231,3.2219,3.2217,3.2207,3.2207,3.2207,3.2207,0,3.2665,3.263,3.2608,3.2562,3.255,3.2541,3.2501,3.2487,3.2461,3.2438,3.243,3.2388,3.236,3.2324,3.2285,3.2266,3.2247,3.2237,3.2258,3.2253,3.2254,3.2254,3.2267,3.2265,3.224,3.224,3.224,0,3.2679,3.2669,3.2622,3.2607,3.2587,3.2565,3.2546,3.2508,3.2491,3.245,3.2441,3.241,3.2384,3.234,3.2305,3.2274,3.2262,3.2268,3.2257,3.2265,3.2259,3.226,3.2257,3.2271,3.2272,3.2272,3.2272,0,3.2708,3.2691,3.2666,3.2635,3.2614,3.2587,3.2559,3.2549,3.2505,3.2486,3.2457,3.2436,3.2395,3.2364,3.2327,3.2304,3.228,3.2276,3.2274,3.2283,3.2294,3.2286,3.2264,3.2276,3.2275,3.2275,3.2275,3.2275,3.2733,3.2722,3.2686,3.2658,3.2633,3.2607,3.2591,3.2561,3.2536,3.25,3.2478,3.2449,3.2413,3.2361,3.2339,3.2314,3.2305,3.2303,3.2302,3.2301,3.2303,3.2299,3.2308,3.2307,3.2307,3.2307,3.2307,0,3.2758,3.2733,3.2708,3.2669,3.2647,3.2626,3.2593,3.2576,3.255,3.2519,3.2493,3.2457,3.2426,3.2388,3.2354,3.2341,3.2329,3.2333,3.2333,3.2327,3.2314,3.2319,3.2343,3.2343,3.2343,3.2343,3.2343,3.2343,3.2768,3.2746,3.2724,3.2688,3.2662,3.2633,3.2616,3.2591,3.2565,3.2527,3.2501,3.2476,3.244,3.2403,3.2373,3.2362,3.235,3.2358,3.2343,3.2332,3.2329,3.2326,3.2329,3.2356,3.2356,3.2358,3.2358,3.2358]}]]